SKYSAT-C8 (42990 NORAD) Tracking and Keplerian Element Data

This shows tracking and keplerian element data for the satellite.

Feedback or suggestion? Click here.




ElementValue
Catalog42990
NameSKYSAT-C8
Epoch Orbit7709
Epoch Day82.14941065
Epoch Year2019
RAAN197.1636
Inclination97.4213
Eccentricity0.0003396
Argument of Perigee199.8559
Mean Anonmoly280.8873
Mean Motion15.21728729
Decay Rate7.02E-06
L11 42990U 17068D 19082.14941065 .00000702 00000-0 34039-4 0 9998
L22 42990 97.4213 197.1636 0003396 199.8559 280.8873 15.21728729 77095

Live tracking and technical data element details for SKYSAT-C8 (NORAD 42990). SKYSAT-C8 can be tracked NOW for your location showing map with azimuth and elevation plus other details from your city location.

Track the satellite on the map from your city or location and see movement details for azimuth, elevation, latitude, longitude, range, height, and movement on the map or in text.







IsCatalogInMostPopularTable: catalog: 42990, numindb: 213
Update: records affected: 1



GetName: 42990 SKYSAT-C8

Hit Count: updated at: Sun, 24 Mar 2019 09:13:16 GMT